Temp
9 9 11 12 12 12 12 12 12 13 13 13 12 12 10 9 9 8 8 8 8 8 8 8 7 7 10 11 13 18 18 17 16 16 15 14 14 14 14 14 15 15 16 16 17 16 16
8 9 9 11 12 13 13 12 12 12 12 12 12 12 10 9 9 8 8 8 8 8 8 7 6 6 8 10 16 16 16 15 16 15 15 14 14 14 15 16 16 17 16 17 16 16 17
8 8 9 11 12 12 12 13 11 12 12 12 12 11 10 9 8 8 7 7 7 7 7 7 6 6 7 11 15 15 13 14 15 16 14 16 16 16 16 16 17 17 16 16 16 17 16
8 8 10 11 11 9 9 10 10 11 11 11 12 11 9 9 8 7 6 6 6 7 7 7 6 6 7 12 12 14 15 14 14 15 16 17 16 15 16 16 16 16 15 15 17 17 18
8 8 9 10 10 10 10 10 9 11 11 11 11 11 9 8 8 7 6 6 6 7 6 7 7 7 7 11 11 14 13 14 16 15 15 16 16 15 16 15 13 13 13 15 16 17 17
8 8 9 11 12 12 11 10 9 10 11 11 11 10 9 8 7 6 6 5 6 7 7 7 8 8 9 13 14 15 15 14 15 15 15 15 13 13 11 12 13 13 13 13 14 16 15
7 7 9 11 12 13 12 11 11 11 11 11 11 9 8 8 7 6 5 5 6 7 7 9 10 10 13 14 15 16 14 14 16 15 13 13 12 12 14 13 14 15 14 13 13 14 15
7 7 9 11 12 12 12 12 11 11 11 11 10 9 8 6 6 6 5 5 8 7 6 9 10 10 12 13 12 15 16 15 14 13 14 13 12 14 14 13 13 13 13 12 13 14 14
7 7 9 10 12 12 13 12 11 11 11 11 9 7 6 6 5 4 5 6 8 8 7 9 11 10 12 12 12 14 15 15 15 13 13 12 15 15 15 14 13 13 13 13 14 15 15
6 7 9 9 12 12 12 12 11 11 11 9 7 6 6 5 5 5 5 7 9 8 7 10 10 11 12 13 12 15 16 16 14 14 13 13 14 15 14 14 13 13 14 14 14 14 13
6 6 8 10 9 10 11 11 11 10 8 7 6 5 4 5 4 5 6 9 9 8 7 13 12 13 13 13 15 14 16 16 14 14 13 13 15 13 14 14 14 14 15 14 14 13 12
6 6 6 7 8 7 7 6 6 5 5 5 4 4 3 3 4 6 7 8 9 8 7 13 13 12 12 13 16 15 15 17 15 14 14 14 16 15 15 16 15 17 16 15 12 12 12
6 6 5 5 7 7 7 7 6 6 5 5 4 3 4 2 4 6 8 7 7 7 13 14 14 14 13 14 16 16 15 13 13 13 13 15 15 16 16 16 16 16 14 13 13 12 13
6 6 5 5 5 6 6 6 5 5 4 4 4 3 3 3 5 6 8 7 7 11 12 14 15 14 14 15 15 15 13 12 12 13 12 13 14 14 14 15 15 14 14 13 13 13 13
5 5 5 5 4 4 4 4 4 4 4 3 3 3 3 5 6 7 6 6 8 11 12 12 14 14 13 14 14 14 12 11 11 11 13 12 13 13 14 14 14 14 13 14 13 13 13
6 5 5 4 5 4 4 4 4 4 4 4 4 4 5 6 6 7 5 7 9 10 11 12 9 10 12 12 13 13 12 11 12 11 12 11 13 12 13 13 13 13 13 11 10 12 13
5 5 4 4 4 4 3 3 3 3 3 4 5 4 6 6 7 5 6 8 11 11 11 10 11 11 11 12 12 12 11 11 12 11 11 11 11 11 13 12 11 11 11 10 10 11 11
5 5 5 4 4 3 3 3 2 3 3 3 3 3 6 6 5 6 6 10 11 10 11 11 9 10 11 11 11 10 10 10 10 11 10 10 9 9 10 10 11 11 10 10 9 10 9
4 6 4 4 4 3 3 3 3 3 3 4 3 3 5 6 5 6 8 10 9 10 9 10 10 10 10 10 10 10 9 10 10 10 9 10 8 8 9 10 10 9 9 9 9 7 7
4 5 4 4 4 3 3 3 3 3 4 4 2 2 4 4 5 6 8 9 9 10 9 10 9 10 10 9 9 9 9 9 9 10 10 9 8 9 8 9 8 8 8 8 7 1 5
4 4 3 3 3 3 3 3 3 4 4 4 2 2 5 3 4 6 9 10 9 9 10 9 9 9 9 8 8 7 8 8 9 9 7 7 7 8 8 8 7 7 7 7 7 7 5
3 3 4 3 3 3 3 3 3 4 4 3 2 4 5 6 7 7 7 9 9 9 9 9 8 8 8 7 8 7 7 7 8 7 7 5 6 6 6 7 7 7 7 7 7 8 8
3 3 3 3 3 3 3 3 3 4 4 3 4 4 5 5 7 7 8 8 8 8 8 9 8 7 7 7 8 8 7 7 8 7 6 6 3 4 6 7 7 7 8 8 7 8 8
3 3 3 3 3 3 3 3 4 4 5 5 5 4 4 5 7 7 9 9 8 8 7 8 7 7 8 7 7 6 5 5 5 5 5 4 4 3 4 6 4 8 7 7 6 7 5
3 3 3 3 3 2 3 3 4 4 5 5 5 4 4 3 7 7 7 7 7 6 6 6 7 6 6 6 6 7 6 7 6 5 4 5 4 2 2 4 7 7 6 5 5 6 4
3 3 3 3 2 3 3 4 4 5 5 6 5 4 3 4 4 5 6 6 5 5 5 6 6 4 4 1 2 5 4 6 7 6 5 4 6 5 5 3 3 4 5 6 5 6 3
3 3 3 2 2 3 3 4 4 5 6 6 4 5 4 1 4 5 5 5 4 4 4 4 4 5 3 -1 -0 -0 4 6 5 4 6 5 5 5 4 4 4 3 4 4 6 4 2
3 3 3 3 3 3 3 4 4 5 6 6 4 5 5 1 3 4 5 4 4 3 2 3 2 2 1 1 2 -1 -1 3 3 -0 5 5 5 6 6 5 5 3 4 3 2 2 1
3 3 3 3 3 3 3 4 4 5 6 6 5 5 6 2 3 4 5 5 6 5 1 1 2 2 -0 0 0 1 2 -1 1 4 4 3 3 4 4 3 3 2 2 1 1 1 0
Height
771 769 767 766 765 763 764 763 762 762 763 764 766 768 771 772 776 777 779 780 780 779 778 777 775 774 773 773 760 751 752 752 750 751 754 758 763 766 769 767 764 767 762 757 754 754 753
765 764 762 760 757 754 753 754 755 753 755 756 759 761 764 768 771 774 776 777 779 779 776 776 774 773 775 772 747 746 748 749 748 747 750 754 758 759 761 760 762 754 756 753 751 750 749
761 757 755 752 747 745 741 739 742 742 744 748 750 755 757 760 765 769 771 775 773 775 776 774 774 774 770 754 741 742 744 748 745 743 747 749 751 755 756 757 752 752 758 753 749 745 746
756 752 749 745 739 733 729 727 728 731 736 739 744 747 752 755 758 764 769 767 771 772 773 771 772 772 758 739 738 734 738 743 745 743 743 746 750 753 755 752 755 756 759 761 746 743 738
749 746 742 735 729 721 717 716 716 722 727 731 735 739 743 749 754 758 764 763 768 764 772 769 771 769 751 737 734 724 729 736 741 742 742 744 747 752 751 759 767 765 769 762 755 743 743
742 739 732 725 720 713 708 707 706 713 719 724 729 733 738 742 750 754 759 760 765 764 770 766 769 770 741 730 726 721 718 731 737 740 742 746 749 755 762 762 766 766 767 765 761 747 745
736 731 724 716 709 702 700 698 701 703 710 716 721 725 733 739 745 752 758 761 768 766 763 751 749 742 729 725 723 721 717 729 734 739 746 742 752 754 743 753 750 753 759 763 760 748 747
731 725 717 708 696 693 693 690 693 700 705 712 714 717 725 734 740 747 751 758 752 757 759 749 739 736 732 732 731 719 719 726 735 738 741 747 747 735 742 749 753 756 760 763 754 743 750
726 721 711 700 689 684 687 685 689 695 703 707 712 717 724 731 740 746 748 751 753 753 761 735 718 719 722 730 727 719 717 719 727 734 738 745 732 730 737 745 751 753 757 755 752 744 742
723 716 709 696 682 681 682 683 688 692 696 705 710 716 724 732 743 743 749 745 751 755 760 726 718 703 706 717 717 709 710 716 725 730 735 738 729 731 739 740 744 751 741 742 745 752 756
723 717 707 697 688 681 679 682 686 689 696 703 713 717 724 731 738 744 744 742 749 753 767 700 704 694 697 702 695 702 703 710 723 725 731 731 726 731 734 732 733 739 729 737 740 747 753
720 718 710 702 694 691 684 687 694 697 703 710 716 722 726 734 737 742 743 746 748 755 752 696 691 696 703 699 690 696 703 704 711 720 722 725 717 719 722 719 724 720 726 733 745 747 753
718 716 713 709 702 700 696 699 701 705 713 719 724 722 729 734 741 741 744 747 753 755 705 692 692 692 695 696 691 692 702 715 721 728 730 721 718 714 714 720 720 724 735 747 750 753 744
716 714 712 711 709 705 701 703 704 708 716 721 725 728 731 734 739 742 741 746 745 714 704 691 686 690 692 689 694 694 706 721 724 720 725 725 729 723 721 721 724 728 731 743 742 742 740
716 715 713 710 712 709 707 709 711 714 718 724 729 732 733 734 738 741 745 745 732 709 706 704 689 693 696 693 695 702 715 726 727 725 720 728 728 728 725 725 726 727 735 732 736 735 738
715 717 713 711 712 712 713 713 714 717 721 725 729 733 733 734 737 740 747 734 722 714 710 707 723 718 701 703 700 705 719 726 725 727 721 731 728 734 729 728 729 729 733 746 754 741 733
710 713 714 711 712 713 715 715 716 719 723 727 728 732 733 735 737 743 741 731 714 713 710 715 714 715 708 708 708 715 727 729 725 728 728 733 735 738 730 737 743 745 743 747 750 750 742
705 710 711 711 711 713 715 716 717 720 724 728 729 735 733 737 744 739 737 720 713 715 712 716 722 717 715 715 716 723 730 729 731 730 736 739 747 753 745 744 741 742 749 749 760 754 759
701 706 707 709 710 713 716 717 718 720 724 726 729 734 735 737 737 734 723 717 718 717 721 720 721 719 719 722 725 723 733 736 733 733 739 740 754 757 753 748 746 751 753 756 761 768 770
697 700 704 707 710 713 716 717 718 721 723 725 729 742 739 740 735 731 722 721 722 719 722 721 724 723 724 726 729 734 738 740 739 736 736 738 750 749 757 752 760 758 759 759 769 808 781
693 697 701 705 709 712 715 716 718 720 721 725 726 729 723 740 733 726 716 714 717 722 721 722 727 727 727 734 737 743 743 743 741 741 746 747 753 754 756 757 760 760 760 758 765 759 775
689 695 699 703 708 711 713 716 717 718 721 723 723 719 719 720 715 718 720 716 715 721 723 726 731 731 731 738 739 744 744 746 746 748 751 758 761 760 761 757 759 756 754 756 754 751 747
688 693 697 702 707 710 712 713 715 717 719 719 716 715 718 720 718 718 718 717 722 724 728 727 731 736 739 741 740 741 742 744 745 750 755 760 772 773 765 754 752 748 739 743 746 740 734
687 692 697 702 705 708 711 712 714 714 715 715 714 716 719 724 717 716 714 717 723 724 730 733 733 736 739 739 741 743 747 750 752 754 756 768 768 777 771 758 776 741 745 747 748 739 744
686 692 697 702 705 708 709 712 713 712 712 714 713 714 715 730 718 719 721 725 729 732 735 737 739 740 739 742 746 744 749 745 748 754 757 757 767 781 785 774 750 743 753 759 753 743 751
686 692 697 701 705 707 709 711 712 711 713 712 711 712 713 723 732 727 728 728 737 740 743 741 741 740 742 758 762 756 763 750 747 751 754 759 758 767 766 781 781 765 759 754 755 743 758
687 692 697 701 704 707 709 711 711 711 711 711 712 712 713 730 731 729 731 734 738 742 747 748 746 745 748 772 781 786 764 753 756 769 753 761 765 767 769 770 764 768 759 753 744 761 763
688 693 698 701 704 707 710 712 712 712 712 711 713 712 712 726 731 730 729 734 738 741 752 752 757 757 762 768 769 788 790 770 770 785 757 757 758 757 755 761 762 769 757 762 770 769 768
689 694 698 702 705 708 711 712 712 713 713 712 712 713 713 719 732 732 732 732 734 737 747 753 756 757 762 769 774 775 772 784 778 767 763 771 773 767 767 775 775 777 775 777 775 773 773
Wind_Speed
24 26 28 31 33 35 40 43 46 45 43 40 39 39 34 29 21 18 16 16 16 15 15 14 12 10 4 1 10 7 9 5 5 9 8 5 4 5 5 5 4 5 5 7 7 9 8
28 31 34 35 37 38 39 45 46 47 47 43 42 41 38 30 24 18 15 16 16 16 14 14 10 4 1 5 10 9 9 11 13 13 9 9 6 7 4 5 5 3 5 7 6 8 5
29 34 37 40 42 48 47 44 48 47 48 46 42 43 39 33 25 19 15 14 13 16 16 14 10 5 5 15 8 8 3 12 16 14 6 11 11 2 1 4 2 4 5 6 7 5 6
32 36 40 45 47 49 48 47 44 48 46 45 42 42 38 34 26 19 17 13 12 15 18 13 9 7 9 17 17 20 23 23 13 13 11 8 7 4 4 4 5 2 1 2 4 1 5
30 37 40 45 47 46 43 43 42 46 47 44 45 40 38 34 26 22 19 15 15 9 19 10 5 6 11 7 10 22 24 16 21 17 13 6 6 6 2 3 4 3 4 3 6 4 4
29 36 40 45 46 43 34 36 38 41 41 40 43 39 38 32 26 22 17 12 8 7 6 3 8 4 7 5 6 7 12 22 5 5 3 5 3 4 2 4 7 4 3 3 4 5 2
30 36 42 45 47 42 34 34 35 37 40 38 41 41 36 30 27 20 11 2 4 3 7 10 8 5 4 5 13 6 9 12 1 3 7 6 5 7 18 5 4 2 3 5 5 9 4
28 34 41 45 46 29 31 29 29 34 36 37 42 44 37 31 25 18 12 4 2 6 6 18 26 20 30 9 4 5 18 7 7 6 4 2 8 13 6 5 5 5 4 6 6 7 5
25 29 35 42 37 22 23 21 24 29 32 38 42 38 33 26 18 14 12 12 9 4 4 10 13 12 16 16 9 7 9 5 5 7 8 7 6 9 7 4 5 5 5 5 7 5 5
19 21 24 32 21 15 15 16 22 25 33 40 39 34 28 24 12 9 5 15 14 4 4 7 8 8 14 6 8 20 11 6 4 11 7 6 8 7 5 6 8 4 9 9 7 3 4
14 14 13 15 16 5 4 13 19 26 34 37 31 31 25 15 11 3 2 8 12 4 3 4 5 3 11 14 7 10 12 4 9 7 7 7 5 6 4 10 7 8 7 7 5 5 4
9 5 12 13 19 29 33 37 34 33 32 29 25 22 20 10 6 7 5 14 8 3 8 4 6 7 8 10 4 5 5 2 5 5 2 7 1 4 7 6 7 3 2 2 3 2 2
9 2 6 14 22 25 27 27 26 24 18 17 16 14 13 13 2 6 17 7 4 5 7 2 3 6 7 7 3 5 10 3 5 5 4 2 4 1 2 3 1 3 4 2 2 1 4
5 3 4 6 11 14 16 15 18 19 19 14 12 14 12 12 11 7 8 1 7 5 8 4 1 9 5 4 1 4 7 4 6 2 3 5 2 4 5 2 2 4 6 4 5 3 4
5 5 8 10 11 13 15 15 15 16 15 15 14 10 8 15 11 10 4 5 5 2 5 8 6 10 2 3 5 5 4 3 3 4 3 3 2 3 5 3 1 3 3 2 2 1 2
11 8 7 8 8 10 12 13 13 13 14 14 11 6 2 13 11 12 3 4 6 3 5 5 3 7 0 3 3 4 3 3 3 5 1 1 2 3 2 1 6 5 2 2 3 2 5
14 11 10 10 11 12 11 10 10 12 13 15 6 3 8 11 6 2 3 4 3 2 4 5 3 4 4 2 4 3 4 4 4 3 7 2 2 3 2 3 1 4 2 4 2 2 3
16 12 12 12 11 11 12 11 11 12 13 12 4 3 13 17 3 3 3 5 1 3 7 5 3 4 4 5 4 4 4 4 5 1 3 1 3 2 2 7 2 1 4 4 3 2 2
20 15 15 15 14 15 12 10 10 12 12 5 3 3 8 5 3 3 3 2 4 1 3 3 5 4 4 2 4 6 5 3 5 3 4 3 1 3 2 2 3 4 4 4 0 2 5
22 17 16 17 15 12 11 11 10 10 9 3 2 3 2 2 3 3 4 5 6 2 3 4 3 3 3 5 7 4 4 4 6 3 9 3 2 3 3 2 2 1 3 2 4 2 3
22 19 20 17 14 12 11 11 10 10 8 3 1 4 5 4 4 5 2 2 4 3 2 3 4 3 3 3 2 3 3 3 4 5 4 3 2 2 4 1 2 4 9 10 7 10 5
23 20 20 17 16 13 11 10 10 9 7 3 3 3 1 1 3 5 1 2 6 4 2 2 5 4 5 4 3 3 3 2 2 5 3 4 2 2 2 6 7 8 11 10 13 14 16
21 20 19 18 15 12 10 9 8 8 9 5 2 0 2 2 3 4 3 4 4 6 5 5 8 5 7 3 2 3 4 3 3 4 2 1 3 2 2 0 4 6 1 0 6 9 12
22 20 21 18 14 11 10 9 6 5 13 5 3 2 2 0 2 3 6 8 6 3 6 3 5 4 2 2 2 3 2 1 2 3 4 4 4 2 2 2 1 1 5 1 8 7 11
23 21 20 17 15 11 10 8 4 5 7 6 4 2 2 2 2 8 10 10 10 7 5 5 4 1 1 4 2 2 2 2 2 3 4 5 3 1 2 1 5 4 5 5 4 4 7
25 21 19 16 14 11 10 7 4 6 6 7 6 2 2 5 2 2 5 4 4 3 3 2 3 4 6 3 3 2 1 1 2 3 9 6 3 2 2 2 4 2 11 11 8 4 8
25 22 19 17 15 12 10 7 6 6 5 3 6 2 4 4 2 1 3 4 4 4 3 2 3 4 4 2 3 2 2 0 2 1 1 4 3 4 3 2 3 8 13 8 3 4 8
25 23 19 17 15 12 10 8 7 5 2 2 7 7 3 3 2 3 2 4 3 3 3 2 3 4 3 3 2 2 2 1 2 3 4 2 1 2 3 4 4 13 3 5 5 4 6
24 21 19 18 15 13 11 8 7 5 3 3 5 10 13 5 3 4 11 10 4 5 5 2 4 2 3 4 1 2 1 1 3 0 4 2 0 1 2 2 3 4 5 5 7 5 6
Wind_Direction
304 298 294 293 286 278 268 267 267 266 266 267 266 263 254 248 245 249 263 272 283 295 303 310 317 327 353 77 249 250 271 248 154 165 172 147 147 160 190 202 176 227 244 249 251 270 249
300 298 305 304 299 287 282 265 258 258 261 261 265 262 248 244 239 242 254 273 289 299 302 309 307 313 197 223 253 265 264 235 216 178 175 169 199 202 235 231 183 214 216 251 262 250 248
297 303 305 304 301 297 288 275 256 250 251 256 258 255 245 235 231 234 246 269 281 296 303 306 297 264 223 238 229 223 350 243 212 190 166 193 212 194 210 290 230 255 285 292 246 228 235
298 304 307 304 305 291 277 271 259 245 247 248 248 243 235 227 220 229 237 251 272 302 303 298 285 234 251 260 263 246 238 248 227 212 210 227 229 196 179 279 337 289 90 275 288 246 258
297 305 306 302 300 298 276 262 254 243 243 242 244 237 221 219 214 222 232 245 267 291 300 273 238 214 266 282 247 245 225 217 229 228 254 226 160 186 156 156 343 341 251 236 307 284 266
300 306 309 309 306 299 284 269 257 242 235 238 235 227 210 209 210 214 227 227 296 307 262 195 253 258 261 244 244 229 200 206 179 171 134 176 171 170 104 151 220 206 232 242 256 273 318
300 305 311 309 306 296 280 274 261 239 232 232 231 206 198 202 205 206 216 6 208 202 218 211 185 264 276 285 282 238 155 150 208 153 179 181 161 190 223 180 177 199 214 240 256 263 331
302 309 312 309 308 281 279 272 254 234 232 230 211 197 193 189 193 192 179 202 118 122 291 239 250 243 265 334 316 273 150 141 175 181 141 67 231 214 153 182 208 222 251 266 271 266 163
305 315 314 310 311 270 274 266 238 231 229 221 193 181 173 171 169 172 188 191 143 152 258 255 217 224 226 205 225 256 173 151 162 164 182 179 239 163 163 172 189 209 197 243 224 341 273
310 320 320 326 323 270 264 254 233 228 214 191 172 162 158 149 147 164 209 229 221 281 328 265 205 241 179 183 238 221 199 148 196 197 156 223 243 239 168 203 176 236 209 229 254 160 233
302 342 342 351 21 65 235 244 225 182 160 150 145 142 141 147 118 150 354 179 153 158 345 207 187 176 153 175 146 204 169 119 177 184 155 230 192 193 171 218 148 224 240 229 214 196 137
277 357 54 85 88 97 103 100 103 106 112 114 120 127 137 128 123 159 143 145 139 96 249 270 139 167 157 201 201 119 139 116 154 156 186 219 179 161 195 209 184 181 156 88 66 149 240
246 249 85 89 99 103 98 98 98 100 103 121 128 130 139 129 200 173 148 158 141 196 309 262 185 153 173 175 155 132 157 86 165 130 191 222 241 215 78 156 81 125 103 278 316 344 226
185 161 153 110 109 113 117 124 131 139 147 154 151 131 138 159 193 166 151 318 220 205 254 335 228 149 175 125 349 118 110 130 32 88 122 167 140 15 349 83 156 183 170 169 232 208 248
191 161 138 122 118 116 119 126 131 135 139 144 145 159 168 193 184 168 124 191 207 300 339 348 2 158 114 62 114 95 69 92 60 17 144 131 102 348 32 352 352 161 149 201 261 123 278
198 193 171 160 150 136 135 135 139 145 149 148 148 132 198 171 159 134 207 221 235 9 356 2 42 294 94 47 97 72 89 3 101 36 43 105 82 81 292 228 18 72 343 69 11 210 239
193 199 201 185 165 157 158 155 163 163 164 169 135 110 184 164 147 133 196 246 276 351 68 11 74 310 53 79 63 71 51 24 33 34 58 69 83 315 335 59 55 352 65 75 116 229 262
196 206 213 209 202 185 165 159 160 159 156 171 139 102 159 159 165 205 212 223 52 342 47 39 90 12 30 32 58 83 105 48 348 77 77 58 112 130 258 326 268 95 70 54 133 142 279
186 199 200 190 179 170 168 170 164 167 173 163 119 104 176 182 194 215 269 39 35 56 16 96 357 28 40 59 111 81 85 340 22 95 148 162 131 123 91 357 34 80 75 86 303 153 223
183 190 195 183 170 169 178 180 178 174 188 192 115 106 121 210 269 242 186 174 161 84 77 69 100 114 70 31 30 108 98 26 4 66 61 77 127 133 184 129 99 312 308 252 169 138 230
181 181 167 166 173 172 175 178 182 182 180 206 147 214 175 188 243 239 159 151 104 123 94 47 51 74 123 108 77 94 68 30 26 14 45 74 127 155 229 171 168 217 262 268 224 242 223
173 178 183 177 177 174 181 181 186 183 189 213 179 154 55 215 136 138 280 152 128 99 54 57 107 84 87 99 47 147 131 169 178 19 64 10 103 83 276 241 236 257 246 232 238 255 253
170 178 175 172 169 170 181 187 187 199 202 231 192 328 132 306 120 118 176 136 137 126 37 62 129 96 79 129 167 197 192 181 160 138 89 56 117 80 260 98 296 275 260 123 301 304 275
166 168 169 162 162 170 174 177 189 212 204 234 194 162 102 30 103 123 116 112 117 80 119 71 76 90 148 76 108 65 67 237 254 250 163 146 135 124 246 287 307 57 67 304 314 355 344
165 164 161 164 162 165 169 165 160 138 185 205 169 163 123 86 108 98 105 109 83 70 73 76 35 343 82 54 63 71 5 124 68 219 201 179 131 168 120 267 304 202 35 345 345 315 13
159 160 158 160 162 165 161 151 124 139 142 112 82 128 107 118 329 347 82 94 109 109 43 57 34 15 66 72 68 89 107 349 63 41 28 110 85 107 154 182 248 357 322 316 281 236 18
159 158 157 158 158 156 153 134 107 108 121 137 69 89 103 104 351 47 121 134 121 88 90 17 355 27 56 59 67 109 106 217 49 343 333 119 155 205 240 276 305 350 316 303 224 3 22
166 162 158 155 152 149 148 139 106 112 103 144 72 52 119 101 32 18 62 117 84 81 122 254 46 351 43 72 109 185 101 286 41 234 326 71 249 180 187 216 270 0 351 39 313 43 37
168 162 158 155 149 145 138 134 100 92 122 127 83 70 74 80 129 68 65 51 69 156 128 45 163 165 176 86 39 104 131 57 148 47 348 43 249 134 21 101 11 25 26 30 23 40 37